Caribou, ME

2:52 PM EST on February 24, 2017 (GMT -0500)
Caribou Municipal

Weather History for KCAR - December, 2012

Change the Weather History Date:

Wednesday, December 19, 2012

  Actual Average Record
Temperature  
Mean Temperature 31 °F 17 °F  
Max Temperature 34 °F 25 °F 43 °F (1954)
Min Temperature 28 °F 9 °F -20 °F (1940)
Degree Days  
Heating Degree Days 34 48  
Month to date heating degree days 788 842  
Since 1 July heating degree days 2620 2987  
Cooling Degree Days 0 0  
Month to date cooling degree days 0 0  
Year to date cooling degree days 279 180  
Moisture  
Dew Point 29 °F    
Average Humidity 89    
Maximum Humidity 92    
Minimum Humidity 85    
Precipitation  
Precipitation 0.61 in 0.09 in 0.69 in (1967)
Month to date precipitation 2.26 2.12  
Year to date precipitation 37.80 37.34  
Snow  
Snow 6.60 in 0.70 in 6.60 in (2012)
Month to date snowfall 17.4 13.3  
Since 1 July snowfall 19.0 25.5  
Snow Depth 11.00 in    
Sea Level Pressure  
Sea Level Pressure 29.76 in    
Wind  
Wind Speed 10 mph (NE)    
Max Wind Speed 17 mph    
Max Gust Speed 24 mph    
Visibility 3 miles    
Events Fog , Snow    
T = Trace of Precipitation, MM = Missing Value Source: NWS Daily Summary

Daily Weather History Graph

Daily Weather History Graph

Search for Another Location

Airport or City:

Trip Planner

Search our weather history database for the weather conditions in past years. The results will help you decide how hot, cold, wet, or windy it might be!

Date:

Astronomy

Dec. 19, 2012 Rise Set
Actual Time 7:13 AM EST 3:45 PM EST
Civil Twilight 6:38 AM EST 4:20 PM EST
Nautical Twilight 5:59 AM EST 4:59 PM EST
Astronomical Twilight 5:22 AM EST 5:36 PM EST
Moon 10:56 AM EST (12/19) 11:36 PM EST (12/19)
Length of Visible Light 9h 42m
Length of Day
8h 31m
Waxing Crescent, 45% of the Moon is Illuminated
Dec 19
Waxing Crescent
Dec 20
First Quarter
Dec 28
Full
Jan 4
Last Quarter
Jan 11
New

Hourly Weather History & Observations

Time (EST) Temp. Windchill Dew Point Humidity Pressure Visibility Wind Dir Wind Speed Gust Speed Precip Events Conditions
12:01 AM 33.8 °F 24.8 °F 30.2 °F 87% 29.66 in 3.0 mi ENE 12.7 mph 21.9 mph 0.00 in Snow Light Snow
12:51 AM 33.8 °F 23.9 °F 30.2 °F 87% 29.65 in 2.0 mi ENE 15.0 mph 20.7 mph 0.00 in Snow Light Snow
12:54 AM 33.1 °F 23.4 °F 30.0 °F 89% 29.68 in 1.8 mi ENE 13.8 mph 20.7 mph 0.00 in Snow Light Snow
1:07 AM 33.8 °F 25.8 °F 30.2 °F 87% 29.65 in 1.2 mi ENE 10.4 mph - 0.01 in Snow Light Snow
1:15 AM 33.8 °F 25.8 °F 30.2 °F 87% 29.65 in 1.0 mi ENE 10.4 mph 19.6 mph 0.01 in Snow Light Snow
1:50 AM 33.8 °F 23.9 °F 30.2 °F 87% 29.65 in 0.8 mi ENE 15.0 mph 24.2 mph 0.05 in Snow Light Snow
1:54 AM 33.1 °F 23.4 °F 30.9 °F 92% 29.68 in 0.8 mi ENE 13.8 mph 24.2 mph 0.06 in Snow Light Snow
2:13 AM 33.8 °F 25.3 °F 30.2 °F 87% 29.64 in 1.0 mi ENE 11.5 mph 24.2 mph 0.02 in Snow Light Snow
2:25 AM 33.8 °F 24.3 °F 30.2 °F 87% 29.64 in 1.2 mi ENE 13.8 mph - 0.04 in Snow Light Snow
2:47 AM 33.8 °F 25.8 °F 30.2 °F 87% 29.64 in 0.8 mi ENE 10.4 mph 19.6 mph 0.07 in Snow Light Snow
2:54 AM 32.0 °F 23.6 °F 30.9 °F 96% 29.67 in 0.8 mi NE 10.4 mph - 0.08 in Snow Light Snow
3:04 AM 33.8 °F 25.8 °F 30.2 °F 87% 29.64 in 1.0 mi NE 10.4 mph 18.4 mph 0.01 in Snow Light Snow
3:18 AM 33.8 °F 24.3 °F 30.2 °F 87% 29.64 in 0.8 mi NE 13.8 mph 19.6 mph 0.04 in Snow Light Snow
3:54 AM 33.1 °F 24.9 °F 30.9 °F 92% 29.67 in 0.8 mi NE 10.4 mph - 0.11 in Snow Light Snow
4:42 AM 33.8 °F 26.4 °F 30.2 °F 87% 29.64 in 1.0 mi NE 9.2 mph - 0.10 in Snow Light Snow
4:54 AM 33.1 °F 24.9 °F 30.9 °F 92% 29.68 in 1.2 mi NE 10.4 mph - 0.11 in Snow Light Snow
5:43 AM 33.8 °F 26.4 °F 30.2 °F 87% 29.65 in 1.8 mi NE 9.2 mph - 0.05 in Snow Light Snow
5:52 AM 33.8 °F 27.0 °F 30.2 °F 87% 29.65 in 1.5 mi NE 8.1 mph - 0.06 in Snow Light Snow
5:54 AM 33.1 °F 24.9 °F 30.9 °F 92% 29.69 in 1.2 mi NE 10.4 mph - 0.06 in Snow Light Snow
6:01 AM 33.8 °F 25.8 °F 30.2 °F 87% 29.66 in 1.5 mi NE 10.4 mph - 0.00 in Snow Light Snow
6:17 AM 33.8 °F 27.0 °F 30.2 °F 87% 29.66 in 3.0 mi NE 8.1 mph - 0.01 in Snow Light Snow
6:54 AM 34.0 °F 26.0 °F 30.9 °F 89% 29.70 in 4.0 mi NE 10.4 mph - 0.02 in Snow Light Snow
7:37 AM 33.8 °F 24.8 °F 30.2 °F 87% 29.68 in 1.8 mi NE 12.7 mph - 0.00 in Snow Light Snow
7:54 AM 34.0 °F 26.0 °F 30.9 °F 89% 29.72 in 2.0 mi NE 10.4 mph - 0.01 in Snow Light Snow
8:22 AM 33.8 °F 25.3 °F 30.2 °F 87% 29.69 in 1.5 mi ENE 11.5 mph - 0.00 in Snow Light Snow
8:34 AM 33.8 °F 26.4 °F 30.2 °F 87% 29.70 in 1.2 mi NE 9.2 mph 17.3 mph 0.01 in Snow Light Snow
8:47 AM 33.8 °F 26.4 °F 30.2 °F 87% 29.71 in 1.8 mi ENE 9.2 mph - 0.01 in Snow Light Snow
8:54 AM 33.1 °F 24.9 °F 30.0 °F 89% 29.74 in 2.0 mi NE 10.4 mph - 0.01 in Snow Light Snow
9:07 AM 33.8 °F 26.4 °F 30.2 °F 87% 29.71 in 1.5 mi NE 9.2 mph - 0.00 in Snow Light Snow
9:28 AM 33.8 °F 26.4 °F 30.2 °F 87% 29.72 in 1.0 mi NE 9.2 mph - 0.00 in Snow Light Snow
9:51 AM 33.8 °F 27.7 °F 30.2 °F 87% 29.73 in 0.8 mi NE 6.9 mph - 0.01 in Snow Light Snow
9:54 AM 33.1 °F 26.9 °F 30.9 °F 92% 29.76 in 0.8 mi NE 6.9 mph - 0.01 in Snow Light Snow
10:01 AM 33.8 °F 26.4 °F 30.2 °F 87% 29.73 in 0.5 mi NE 9.2 mph - 0.00 in Fog , Snow Snow
10:13 AM 32.0 °F 24.2 °F 30.2 °F 93% 29.73 in 0.5 mi NE 9.2 mph - 0.02 in Fog , Snow Snow
10:54 AM 32.0 °F 25.6 °F 30.9 °F 96% 29.76 in 0.8 mi NNE 6.9 mph - 0.05 in Snow Light Snow
11:07 AM 32.0 °F 23.6 °F 30.2 °F 93% 29.73 in 0.8 mi NNE 10.4 mph - 0.01 in Snow Light Snow
11:33 AM 32.0 °F 24.2 °F 30.2 °F 93% 29.74 in 1.0 mi NNE 9.2 mph - 0.02 in Snow Light Snow
11:54 AM 32.0 °F 24.2 °F 30.0 °F 92% 29.78 in 0.8 mi NNE 9.2 mph - 0.03 in Snow Light Snow
12:03 PM 32.0 °F 24.2 °F 30.2 °F 93% 29.74 in 0.8 mi NNE 9.2 mph - 0.00 in Snow Light Snow
12:13 PM 32.0 °F 24.8 °F 30.2 °F 93% 29.75 in 1.0 mi NNE 8.1 mph - 0.00 in Snow Light Snow
12:43 PM 32.0 °F 24.2 °F 30.2 °F 93% 29.75 in 1.0 mi NNE 9.2 mph - 0.02 in Snow Light Snow
12:54 PM 32.0 °F 24.8 °F 30.0 °F 92% 29.78 in 0.8 mi NNE 8.1 mph - 0.02 in Snow Light Snow
1:04 PM 32.0 °F 24.2 °F 30.2 °F 93% 29.75 in 1.0 mi NNE 9.2 mph - 0.01 in Snow Light Snow
1:54 PM 32.0 °F 23.6 °F 30.0 °F 92% 29.80 in 1.2 mi NNE 10.4 mph - 0.02 in Snow Light Snow
2:01 PM 32.0 °F 23.6 °F 30.2 °F 93% 29.77 in 1.8 mi NNE 10.4 mph - 0.00 in Snow Light Snow
2:12 PM 32.0 °F 24.2 °F 30.2 °F 93% 29.77 in 2.0 mi NNE 9.2 mph - 0.00 in Snow Light Snow
2:32 PM 32.0 °F 24.2 °F 28.4 °F 87% 29.78 in 1.8 mi NNE 9.2 mph - 0.01 in Snow Light Snow
2:39 PM 32.0 °F 24.2 °F 28.4 °F 87% 29.79 in 1.8 mi NNE 9.2 mph - 0.01 in Snow Light Snow
2:43 PM 32.0 °F 23.6 °F 28.4 °F 87% 29.79 in 2.0 mi NNE 10.4 mph - 0.01 in Snow Light Snow
2:51 PM 32.0 °F 24.2 °F 28.4 °F 87% 29.80 in 1.8 mi NNE 9.2 mph - 0.01 in Snow Light Snow
2:54 PM 30.9 °F 23.5 °F 28.9 °F 92% 29.83 in 2.0 mi NNE 8.1 mph - 0.01 in Snow Light Snow
3:01 PM 30.2 °F 21.9 °F 28.4 °F 93% 29.80 in 2.0 mi NNE 9.2 mph - 0.00 in Snow Light Snow
3:06 PM 30.2 °F 22.6 °F 28.4 °F 93% 29.81 in 2.5 mi NNE 8.1 mph - 0.00 in Snow Light Snow
3:11 PM 30.2 °F 21.9 °F 28.4 °F 93% 29.81 in 2.5 mi NNE 9.2 mph - 0.00 in Snow Light Snow
3:15 PM 30.2 °F 21.9 °F 28.4 °F 93% 29.81 in 3.0 mi NNE 9.2 mph - 0.00 in Snow Light Snow
3:25 PM 30.2 °F 21.3 °F 28.4 °F 93% 29.81 in 4.0 mi NNE 10.4 mph - 0.00 in Snow Light Snow
3:54 PM 30.9 °F 21.7 °F 27.0 °F 85% 29.87 in 8.0 mi NNE 11.5 mph - 0.00 in Snow Light Snow
4:29 PM 30.2 °F 20.8 °F 26.6 °F 86% 29.85 in 5.0 mi NNE 11.5 mph - 0.00 in Snow Light Snow
4:54 PM 30.0 °F 20.5 °F 26.1 °F 85% 29.90 in 9.0 mi NNE 11.5 mph - 0.01 in   Overcast
5:32 PM 30.2 °F 21.3 °F 26.6 °F 86% 29.88 in 10.0 mi NNE 10.4 mph - N/A   Overcast
5:54 PM 30.0 °F 20.5 °F 26.1 °F 85% 29.93 in 10.0 mi NNE 11.5 mph - N/A   Overcast
6:54 PM 28.9 °F 18.6 °F 25.0 °F 85% 29.96 in 10.0 mi NNE 12.7 mph - N/A   Overcast
7:54 PM 28.9 °F 19.8 °F 25.0 °F 85% 29.99 in 10.0 mi NNE 10.4 mph - N/A   Overcast
8:54 PM 28.9 °F 21.9 °F 24.1 °F 82% 30.01 in 10.0 mi North 6.9 mph - N/A   Overcast
9:54 PM 28.0 °F 20.0 °F 24.1 °F 85% 30.01 in 10.0 mi North 8.1 mph - N/A   Overcast
10:54 PM 28.0 °F 20.8 °F 24.1 °F 85% 30.03 in 10.0 mi NNE 6.9 mph - N/A   Overcast
11:54 PM 28.0 °F 20.0 °F 24.1 °F 85% 30.06 in 10.0 mi North 8.1 mph - N/A   Overcast